QZS-2 (MICHIBIKI-2)

Last updated on Wed Jul 29 2020 07:02:28 GMT+0000 (Coordinated Universal Time)

1 42738U 17028A 20210.48248839 -.00000163 00000-0 00000-0 0 9994 2 42738 42.9226 273.8549 0754799 269.5541 78.1501 1.00276681 11580

Satellite not in orbit

QZS-2 (MICHIBIKI-2)